SL-16 DEB, 22458

Orbit data source: Space-Track

SL-16 DEB, 22458 is space debris in LEO originally from a launch on Fri, 25 Dec 1992 UTC launched from the Tyuratam Missile And Space Complex (TTMTR). Debris objects in space refer to the collection of defunct objects orbiting the Earth. Examples of debris include non-operational satellites, rocket bodies, and fragments generated from explosions, collisions, or faulty payload assembly.

Loading next visibility...
Identifier
22458, 1992-093EX
Orbit
LEO
Country
Flag of CISCIS
Related business
Manufacturer
Unknown
Mission
Spacecraft
Bus & Motor
Unknown
Mass
Unknown
Launch date (UTC)
1992-12-25 (33 years ago)
Launch vehicle
Unknown
Launch site
Tyuratam Missile And Space Complex (TTMTR)
Object type
Payload
Rocket body
Debris
Shape & HBR
Unknown shape, 0.1 m
Radar Cross Section
Small (<0.1 m²)

Expand to show TLE details & history
Last TLE update: 13 hours ago

TLE from 13 hours ago
0 SL-16 DEB
1 22458U 92093EX  26127.12633924  .00000087  00000-0  85146-4 0  9995
2 22458  70.8526 265.4700 0074151 300.9214 238.0210 14.02673108703044
Epoch: 2026-05-07T03:01Z
TLE epoch observation values (Epoch: 2026-05-07T03:01:55.710Z)
Latitude
1.58093°
Longitude
174.46474°
Altitude
915.55 km
Speed
7.38 km/s
True Right ascension
05h 39m 41s
True Declination
1° 34' 18"
Sunlit
Object was in daylight at epoch
Visualization orbit readout
Latitude
Unknown
Longitude
Unknown
Altitude
Unknown
Speed
Unknown
Apparent Right ascension
Unknown
Apparent Declination
Unknown
Sunlit
N/A
Visualization observer readout
Local Sidereal Time
00:10:45
Azimuth
Unknown
Elevation
Unknown
Doppler factor
Unknown
Orbital elements
Apogee altitude
936.343 km
Perigee altitude
828.666 km
Semi-major axis
7,260.642 km
Eccentricity
0.00742
Inclination
70.8526°
RAAN
265.47°
Arg. of periapsis
300.9214°
True anomaly
237.30378°
Mean anomaly
238.021°
Eccentric anomaly
237.66204°
Mean motion
3.50817 °/min
Orbital period
102.62 mins
BSTAR
0.000085146
Loading maneuver chart data...
Computing Atmospheric mass density...

Documentation

Showing up to 5 results
|